This demonstration page uses our WeatherBlox Daily Observations layout. Learn more.

Left ArrowRight Arrow

44.31136, -96.79839

Hourly Observations for August 8, 2018

Temp ( °F °C ) Dew Point ( °F °C ) Humidity (%) Winds ( mph kmh ) Pressure ( in mb ) Visibility ( mi km ) Precip ( " mm )
12:56 am 00:56 Clear 67 19.4 63 17.2 87 87 S 8 13 29.97 1015 10 16 0.00 0.00
1:56 am 01:56 Clear 65 18.3 62 16.7 90 90 S 8 13 29.96 1015 10 16 0.00 0.00
2:56 am 02:56 Clear 64 17.8 61 16.1 90 90 SSW 5 7 29.97 1015 10 16 0.00 0.00
3:56 am 03:56 Clear 64 17.8 61 16.1 90 90 SSW 7 11 29.96 1014 10 16 0.00 0.00
4:56 am 04:56 Clear 63 17.2 61 16.1 93 93 S 5 7 29.95 1014 10 16 0.00 0.00
5:56 am 05:56 Clear 64 17.8 62 16.7 93 93 S 5 7 29.94 1014 10 16 0.00 0.00
6:56 am 06:56 Sunny 64 17.8 61 16.1 90 90 SSE 3 6 29.95 1014 10 16 0.00 0.00
7:56 am 07:56 Sunny 66 18.9 63 17.2 90 90 S 5 7 29.95 1014 10 16 0.00 0.00
8:56 am 08:56 Partly Cloudy 71 21.7 66 18.9 84 84 S 9 15 29.95 1014 10 16 0.00 0.00
9:56 am 09:56 Partly Cloudy 75 23.9 68 20 79 79 SSW 7 11 29.96 1015 10 16 0.00 0.00
10:56 am 10:56 Sunny 81 27.2 69 20.6 67 67 SW 9 15 29.96 1014 10 16 0.00 0.00
11:56 am 11:56 Sunny 83 28.3 68 20 61 61 SW 10 17 29.96 1015 10 16 0.00 0.00
12:56 pm 12:56 Sunny 85 29.4 67 19.4 55 55 WSW 13 20 29.95 1014 10 16 0.00 0.00
1:56 pm 13:56 Sunny 85 29.4 67 19.4 55 55 WSW 12 19 29.94 1014 10 16 0.00 0.00
2:56 pm 14:56 Sunny 86 30 69 20.6 57 57 SW 14 22 29.94 1014 10 16 0.00 0.00
3:56 pm 15:56 Sunny 87 30.6 69 20.6 55 55 SW 13 20 29.93 1013 10 16 0.00 0.00
4:56 pm 16:56 Sunny 86 30 69 20.6 57 57 SW 13 20 29.92 1013 10 16 0.00 0.00
5:56 pm 17:56 Sunny 86 30 70 21.1 59 59 SW 10 17 29.92 1013 10 16 0.00 0.00
6:56 pm 18:56 Sunny 85 29.4 72 22.2 65 65 SSW 9 15 29.91 1013 10 16 0.00 0.00
7:56 pm 19:56 Sunny 81 27.2 71 21.7 72 72 S 7 11 29.90 1013 10 16 0.00 0.00
8:56 pm 20:56 Clear 76 24.4 70 21.1 82 82 S 8 13 29.91 1013 10 16 0.00 0.00
9:56 pm 21:56 Clear 73 22.8 69 20.6 87 87 SSW 8 13 29.92 1013 10 16 0.00 0.00
10:56 pm 22:56 Clear 73 22.8 68 20 84 84 SSW 6 9 29.92 1013 10 16 0.00 0.00
11:56 pm 23:56 Clear 72 22.2 66 18.9 82 82 SW 6 9 29.93 1013 10 16 0.00 0.00

Powered by AerisWeather